Home   Weather   Kawasaki   Past weeks

Flag for Japan Past Weather in Kawasaki, Japan — Yesterday and Last 2 Weeks

Now
73 °F

Fog.


Feels Like: 68 °F
Forecast: 74 / 83 °F
Wind: 8 mph from Northeast

Location: Tokyo International Airport

Current Time: Sep 27, 2016 at 7:32:09 AM

Latest Report: Sep 27, 2016 at 7:00 AM


Visibility: 1 mi

Pressure: 30.09 "Hg

Humidity: 100%

Dew Point: 73 °F

Location of KawasakiLocation

Past Weather in Kawasaki — Graph

°F

Kawasaki Temperature Yesterday

Maximum temperature yesterday: 82 °F (at 2:00 PM)
Minimum temperature yesterday: 72 °F (at 5:48 AM)
Average temperature yesterday: 77 °F

High & Low Weather Summary for the Past Weeks

 TemperatureHumidityPressure
High84 °F (Sep 17, 2:00 PM)100% (Sep 13, 3:00 AM)30.15 "Hg (Sep 13, 3:00 AM)
Low66 °F (Sep 20, 7:30 PM)66% (Sep 17, 2:00 PM)29.68 "Hg (Sep 18, 3:00 PM)
Average73 °F93%29.97 "Hg
* Reported Sep 12 6:00 AM — Sep 27 6:30 AM, Kawasaki, Weather by CustomWeather, © 2016

Note: Actual official high and low records may vary slightly from our data, if they occured in-between our weather recording intervals... More about our weather records

Advertising

Kawasaki Weather History for the Previous 24 Hours

Scroll right to see more
 ConditionsComfort  
Time TempWeatherWind HumidityBarometerVisibility
6:30 AM
Tue, Sep 27
75 °FFog.6 mph100%30.07 "Hg1 mi
6:03 AM75 °FFog.7 mph100%30.07 "Hg1 mi
6:00 AM75 °FMild.7 mph100%30.07 "Hg1 mi
5:45 AM73 °FFog.3 mph100%30.07 "Hg1 mi
5:30 AM73 °FMild.2 mph100%30.07 "Hg1 mi
5:00 AM75 °FFog.3 mph100%30.07 "Hg2 mi
4:47 AM75 °FFog.5 mph100%30.07 "Hg1 mi
4:30 AM75 °FFog.5 mph100%30.07 "Hg1 mi
4:00 AM75 °FFog.6 mph100%30.07 "Hg2 mi
3:30 AM75 °FMild.6 mph100%30.07 "Hg2 mi
3:00 AM75 °FFog.6 mph100%30.07 "Hg4 mi
2:30 AM75 °FFog.3 mph100%30.07 "Hg4 mi
2:00 AM75 °FFog.3 mph100%30.07 "Hg4 mi
1:30 AM75 °FFog.3 mph100%30.09 "Hg4 mi
1:00 AM75 °FFog.3 mph100%30.09 "Hg3 mi
12:30 AM75 °FFog.2 mph100%30.09 "Hg3 mi
12:00 AM75 °FFog.6 mph100%30.12 "Hg3 mi
11:30 PM
Mon, Sep 26
75 °FFog.7 mph100%30.12 "Hg2 mi
11:00 PM75 °FFog.8 mph100%30.12 "Hg3 mi
10:30 PM75 °FFog.8 mph100%30.12 "Hg3 mi
10:00 PM75 °FFog.12 mph100%30.12 "Hg3 mi
9:30 PM77 °FScattered showers. Passing clouds.12 mph94%30.12 "Hg4 mi
9:00 PM77 °FPassing clouds.12 mph94%30.12 "Hg6 mi
8:30 PM77 °FPassing clouds.10 mph100%30.12 "HgN/A
8:00 PM77 °FPartly cloudy.12 mph100%30.12 "HgN/A
7:30 PM77 °FPassing clouds.9 mph100%30.12 "HgN/A
7:00 PM77 °FPartly cloudy.8 mph100%30.09 "HgN/A
6:30 PM77 °FPartly cloudy.7 mph94%30.09 "HgN/A
6:00 PM79 °FPassing clouds.7 mph89%30.09 "HgN/A
5:30 PM79 °FBroken clouds.9 mph89%30.09 "HgN/A
5:00 PM82 °FBroken clouds.7 mph70%30.07 "HgN/A
4:30 PM81 °FPartly sunny.6 mph79%30.07 "HgN/A
4:00 PM82 °FPartly sunny.7 mph70%30.07 "HgN/A
3:30 PM82 °FPartly sunny.7 mph74%30.07 "HgN/A
3:00 PM81 °FPartly sunny.7 mph84%30.07 "HgN/A
2:30 PM81 °FBroken clouds.8 mph84%30.07 "HgN/A
2:00 PM82 °FBroken clouds.8 mph79%30.07 "HgN/A
1:30 PM81 °FBroken clouds.7 mph79%30.07 "HgN/A
1:00 PM81 °FPartly sunny.3 mph79%30.07 "HgN/A
12:30 PM77 °FBroken clouds.3 mph94%30.09 "HgN/A
12:00 PM79 °FBroken clouds.5 mph89%30.09 "HgN/A
11:30 AM79 °FPartly sunny.6 mph89%30.09 "HgN/A
11:00 AM79 °FPartly sunny.5 mph89%30.09 "Hg6 mi
10:30 AM79 °FPartly sunny.8 mph89%30.12 "Hg5 mi
10:00 AM77 °FPartly sunny.7 mph94%30.12 "Hg5 mi
9:30 AM77 °FPartly sunny.5 mph94%30.09 "Hg5 mi
9:00 AM77 °FPartly sunny.6 mph89%30.12 "HgN/A
8:30 AM77 °FBroken clouds.2 mph89%30.12 "Hg6 mi
8:00 AM75 °FBroken clouds.2 mph94%30.12 "Hg6 mi
7:30 AM75 °FBroken clouds.3 mph94%30.09 "Hg5 mi
7:00 AM75 °FBroken clouds.1 mph100%30.09 "Hg4 mi
Weather by CustomWeather, © 2016

See weather overviewHow to use our weather pages